User: anonymous   Login
Location: Lancaster
(34.6980°N, 118.1360°W)
Time: 22:45:42
(UTC-07:00)
Language:

ITAMSAT 1 - Orbit

View from above orbital plane
View from above orbital plane
View from above satellite
View from above satellite

Ground track
Ground track

The orbit data is extracted from the following two-line orbital elements,

1 22826U 93061D   18289.95337027  .00000006  00000-0  19980-4 0  9990
2 22826  98.8714 268.3815 0008710 348.2535  11.8442 14.30373924307161
Epoch (UTC): 16 October 2018 22:52:51
Eccentricity: 0.0008710
inclination: 98.8714°
perigee height: 784 km
apogee height: 797 km
right ascension of ascending node: 268.3815°
argument of perigee: 348.2535°
revolutions per day: 14.30373924
mean anomaly at epoch: 11.8442°
orbit number at epoch: 30716

The dashed part of the orbit path shows where the satellite is in the earth's shadow,  

DLR